SCP
0 0 1 3 3 1 1 0 0 1 0 0 0 0 0 0 0 0 0 0 0 0 0 0 0 0 0 0 0 0 0 0 0 0 0 0 0 0 0 0 0 0 0
0 0 0 4 3 1 1 0 0 0 0 0 0 0 0 0 0 0 0 0 0 0 0 0 0 0 0 0 0 0 0 0 0 0 0 0 0 0 0 0 0 0 0
0 0 0 3 3 2 1 0 0 0 0 0 0 0 0 0 0 0 0 0 0 0 0 0 0 0 0 0 0 0 0 0 0 0 0 0 0 0 0 0 0 0 0
0 0 0 2 3 3 2 1 0 0 0 0 0 0 0 0 0 0 0 0 0 0 0 0 0 0 0 0 0 0 0 0 0 0 0 0 0 0 0 0 0 0 0
0 0 0 0 1 2 2 0 0 0 0 0 0 0 0 0 0 0 0 0 0 0 0 0 0 0 0 0 0 0 0 0 0 0 0 0 0 0 0 0 0 0 0
0 0 0 0 1 2 1 0 0 0 0 0 0 0 0 0 0 0 0 0 0 0 0 0 0 0 0 0 0 0 0 0 0 0 0 0 0 0 0 0 0 0 0
0 0 0 0 0 0 1 0 0 0 0 0 0 0 0 0 0 0 0 0 0 0 0 0 0 0 0 0 0 0 0 0 0 0 0 0 0 0 0 0 0 0 0
0 0 0 0 0 0 0 0 0 0 0 0 0 0 0 0 0 0 0 0 0 0 0 0 0 0 0 0 0 0 0 0 0 0 0 0 0 0 0 0 0 0 0
0 0 0 0 0 0 0 0 0 0 0 0 0 0 0 0 0 0 0 0 0 0 0 0 0 0 0 0 0 0 0 0 0 0 0 0 0 0 0 0 0 0 0
0 0 0 0 0 0 0 0 0 0 0 0 0 0 0 0 0 0 0 0 0 0 0 0 0 0 0 0 0 0 0 0 0 0 0 0 0 0 0 0 0 0 0
0 0 0 0 0 0 0 0 -0 0 0 0 0 0 0 0 0 0 0 0 0 0 0 0 0 0 0 0 0 0 0 0 0 0 0 0 0 0 0 0 0 0 0
-0 -0 -0 -0 -0 0 0 0 0 -0 -0 0 0 0 0 0 0 0 0 0 0 0 0 0 0 0 0 0 0 0 0 0 0 0 0 0 0 0 0 0 0 0 0
-0 -0 -0 -0 -0 0 0 0 0 0 0 0 0 0 0 0 0 0 0 0 0 0 0 0 0 0 0 0 0 0 0 0 0 0 0 0 0 0 0 0 0 0 0
-0 -0 -0 -0 -0 0 0 0 0 0 0 0 0 0 0 0 0 0 0 0 0 0 0 0 0 0 0 0 0 0 0 0 0 0 0 0 0 0 0 0 0 0 0
-0 -0 0 -0 -0 0 0 0 0 0 0 0 0 0 0 0 0 0 0 0 0 0 0 0 0 0 0 0 0 0 0 0 0 0 0 0 0 0 0 0 0 0 0
0 0 0 0 0 0 0 0 0 0 0 0 0 0 0 0 0 0 0 0 0 0 0 0 0 0 0 0 0 0 0 0 0 0 0 0 0 0 0 0 0 0 0
0 0 0 0 0 0 0 0 0 0 0 0 0 0 0 0 0 0 0 0 0 0 0 0 0 0 0 0 0 0 0 0 0 0 0 0 0 0 0 0 0 0 0
0 0 0 0 0 0 0 0 0 0 0 0 0 0 0 0 0 0 0 0 0 0 0 0 0 0 0 0 0 0 0 0 0 0 0 0 0 0 0 0 0 0 0
0 0 0 0 0 0 0 0 0 0 0 0 0 0 0 0 0 0 0 0 0 0 0 0 0 0 0 0 0 0 0 0 0 0 0 0 0 0 0 0 0 0 0
0 0 0 0 0 0 0 0 0 0 0 0 0 0 0 0 0 0 0 0 0 0 0 0 0 0 0 0 0 0 0 0 0 0 0 0 0 0 0 0 0 0 0
0 0 0 0 0 0 0 0 0 0 0 0 0 0 0 0 0 0 0 0 0 0 0 0 0 0 0 0 0 0 0 0 0 0 0 0 0 0 0 0 0 0 0
0 0 0 0 0 0 0 0 0 0 0 0 0 0 0 0 0 0 0 0 0 0 0 0 0 0 0 0 0 0 0 0 0 0 0 0 0 0 0 0 0 0 0
0 0 0 0 0 0 0 0 0 0 0 0 0 0 0 0 0 0 0 0 0 0 0 0 0 0 0 0 0 0 0 0 0 0 0 0 0 0 0 0 0 0 0
0 0 0 0 0 0 0 0 0 0 0 0 0 0 0 0 0 0 0 0 0 0 0 0 0 0 0 0 0 0 0 0 0 0 0 0 0 0 0 0 0 0 0
0 0 0 0 0 0 0 0 0 0 0 0 0 0 0 0 0 0 0 0 0 0 0 0 0 0 0 0 0 0 0 0 0 0 0 0 0 0 0 0 0 0 0
-0 -0 0 0 0 0 0 0 0 0 0 0 0 0 0 0 0 0 0 -0 0 -0 -0 -0 -0 0 0 -0 0 0 0 0 0 0 0 0 0 0 0 0 0 0 0
Wind_Speed_500mb
57 57 75 93 88 87 77 73 74 76 85 104 102 95 92 89 83 82 75 77 80 77 72 70 63 58 55 52 49 49 47 46 42 41 35 27 19 21 17 14 12 7 4
56 57 56 88 94 95 87 78 83 81 88 99 105 101 93 84 84 83 78 76 79 79 77 75 66 63 60 58 57 56 56 52 52 49 36 29 28 30 23 22 17 15 13
37 50 57 81 98 104 97 86 87 91 96 99 97 95 84 75 77 81 84 83 77 80 82 79 68 66 66 63 60 58 60 62 62 57 34 19 19 37 34 32 24 17 17
28 27 12 65 99 108 103 94 90 97 98 102 97 92 89 92 91 92 87 79 74 79 85 81 72 72 71 66 61 61 62 62 64 63 55 27 23 21 28 39 31 20 17
65 58 39 6 90 102 96 93 91 95 99 100 94 89 84 89 92 93 85 78 75 74 81 82 76 76 74 68 64 65 66 63 60 64 61 48 31 28 24 38 47 34 22
72 66 59 39 47 65 75 89 91 90 94 95 90 86 82 82 84 86 84 80 76 74 76 80 75 73 73 72 68 68 68 64 59 53 61 59 55 51 36 30 38 30 28
66 70 77 63 41 18 61 77 83 85 88 85 82 77 77 76 81 82 84 83 80 76 75 79 77 76 73 72 68 69 69 66 57 53 55 52 52 45 42 33 44 42 35
88 75 63 65 49 50 13 57 70 60 68 75 76 74 71 74 74 78 79 78 76 74 75 81 78 72 69 67 61 60 60 64 62 57 54 50 45 41 37 38 44 35 42
79 78 76 59 59 57 37 9 41 52 48 59 65 75 76 70 74 76 76 72 71 73 72 77 75 70 66 62 53 53 54 55 56 57 53 48 43 41 38 34 36 38 33
63 70 73 64 60 46 44 32 12 24 37 48 48 42 57 73 69 71 71 69 72 70 68 72 75 74 72 68 57 48 48 51 51 48 42 44 41 34 29 28 28 29 33
37 34 38 29 40 47 38 45 35 16 10 12 27 42 46 55 66 74 75 76 76 78 75 73 75 77 76 71 66 72 66 61 50 46 50 47 37 30 27 24 30 29 31
26 32 31 33 14 23 27 46 44 35 18 24 18 27 35 41 56 66 69 76 75 79 75 70 69 72 77 76 73 67 68 58 58 56 58 48 40 26 30 31 32 34 32
31 30 30 29 35 39 37 43 58 39 25 28 32 35 39 44 52 54 65 77 76 83 79 75 72 69 71 72 69 72 71 62 59 58 56 47 32 34 40 40 33 33 40
30 27 32 30 38 43 32 37 44 48 32 20 20 33 56 48 54 63 67 74 76 83 86 79 73 72 70 73 72 69 67 64 65 59 50 43 43 44 45 40 34 43 41
32 31 31 35 40 48 35 31 51 39 33 31 29 33 39 47 54 62 66 71 72 79 85 81 78 73 71 71 69 64 63 69 65 54 50 54 52 51 45 41 44 39 38
28 31 33 35 33 41 33 32 20 16 30 37 41 44 38 44 54 64 67 68 73 80 86 84 81 78 71 68 63 66 68 64 56 55 58 52 45 39 43 40 41 39 36
24 31 39 39 37 33 31 32 29 21 20 20 37 54 49 45 58 61 63 69 74 79 84 85 82 76 74 67 65 66 65 61 64 57 50 44 45 40 34 38 33 36 39
36 38 41 44 46 47 49 49 41 33 29 34 34 40 59 55 63 64 65 69 76 80 83 85 81 80 74 66 65 68 68 67 52 44 45 45 35 34 37 33 34 36 33
34 40 46 53 50 58 44 37 45 44 40 45 51 45 59 65 65 68 69 73 79 82 83 86 86 79 68 62 62 67 67 47 46 47 41 36 33 31 33 29 32 31 28
37 46 50 48 53 50 51 42 47 45 42 47 46 41 51 62 67 66 65 62 72 78 86 86 78 69 59 60 64 58 48 51 46 39 33 32 28 23 25 24 24 28 29
58 52 57 62 50 49 44 40 37 43 46 48 42 39 33 56 62 63 68 67 73 82 83 77 70 58 58 63 51 50 50 45 41 38 33 29 24 21 21 22 23 24 27
50 49 57 53 47 35 31 32 35 45 51 54 43 34 36 46 58 63 73 83 83 84 76 69 63 60 55 51 53 45 39 38 38 34 27 22 21 18 17 21 22 25 27
60 56 51 44 35 36 47 30 42 41 45 44 40 36 33 44 57 71 86 81 75 74 70 67 65 58 52 51 47 44 41 37 32 25 19 19 21 19 21 21 24 19 16
53 52 50 40 44 33 25 26 31 41 46 33 22 20 24 32 46 56 60 63 63 63 67 65 59 57 55 54 53 50 41 37 35 38 37 32 27 25 24 22 14 12 13
63 48 46 29 33 35 27 31 39 41 27 16 12 15 20 28 37 40 44 51 50 44 50 55 57 61 60 59 54 47 42 36 35 35 33 32 31 30 22 17 15 15 17
36 30 42 26 23 24 34 36 35 22 15 15 18 23 28 33 36 40 42 33 34 39 37 41 45 48 42 42 41 36 34 35 38 39 38 33 24 22 20 20 21 21 23
Wind_Direction_500mb
258 269 235 214 214 219 214 221 212 218 221 217 210 208 209 214 219 224 222 218 217 213 212 211 209 211 211 208 203 196 193 186 193 188 187 186 211 233 239 241 243 252 232
242 247 249 214 211 220 211 219 214 216 217 218 216 213 212 212 220 222 224 222 221 215 214 215 211 213 211 208 207 203 196 191 196 197 190 190 204 218 219 228 238 267 266
291 264 248 220 212 210 211 215 221 215 213 212 214 213 215 213 213 222 225 222 221 217 216 217 213 215 214 214 213 205 205 198 199 205 192 178 206 193 205 221 234 237 249
28 27 23 217 210 212 215 209 215 212 209 210 211 218 222 213 216 222 225 225 221 217 217 219 215 218 217 215 216 212 210 207 207 202 207 202 193 175 178 210 235 241 247
26 20 24 340 208 209 210 206 211 212 207 210 212 213 219 222 222 223 226 226 224 220 218 221 217 216 218 218 216 214 211 208 209 209 209 210 198 191 188 194 208 217 221
26 17 21 34 207 206 209 210 206 209 208 211 213 216 218 220 218 222 223 225 225 223 218 220 220 218 219 219 217 215 215 213 211 210 216 220 214 211 202 197 201 213 211
21 26 15 16 45 207 207 200 199 205 207 210 214 218 221 220 223 227 228 228 227 225 222 222 221 221 221 222 219 215 215 214 216 213 215 216 218 220 212 198 187 194 190
9 9 17 9 7 24 214 200 202 214 211 215 218 219 220 219 223 227 229 232 233 233 228 225 222 222 220 220 220 219 215 212 213 216 219 221 219 217 214 201 182 165 184
359 354 0 359 359 3 352 250 220 215 213 220 221 221 216 218 222 223 228 237 241 240 231 227 224 221 222 223 222 220 215 211 212 217 219 220 225 224 222 215 213 211 197
353 342 342 352 348 345 3 357 7 235 226 227 229 239 241 225 223 225 227 237 243 237 233 228 226 227 225 222 217 215 223 227 218 219 225 230 222 220 219 220 223 224 208
329 310 296 291 302 342 349 356 355 319 281 266 248 248 249 244 240 239 240 241 238 238 235 233 230 227 223 224 229 236 234 220 220 229 231 221 217 219 220 244 235 227 219
299 309 273 281 281 316 360 327 337 335 328 266 278 257 260 254 245 240 241 234 238 235 235 234 232 231 227 232 227 227 216 231 225 227 218 215 213 221 235 227 239 221 236
282 296 284 283 275 304 294 269 276 287 314 320 254 253 246 247 252 245 243 236 236 234 230 231 236 234 228 222 217 222 231 221 228 218 214 213 216 234 228 229 223 243 237
270 286 275 282 278 266 270 269 268 266 274 260 281 259 250 245 248 247 240 238 236 234 229 232 232 231 229 223 219 226 225 222 212 208 209 211 229 228 223 224 233 235 234
270 282 279 295 323 295 261 309 262 262 267 285 271 278 271 247 246 241 237 235 235 232 231 225 224 227 226 225 223 225 213 204 202 205 216 221 236 225 227 246 235 235 242
5 351 347 338 335 351 337 309 275 293 259 269 279 277 264 247 240 235 233 235 233 230 226 225 228 224 223 227 225 213 204 203 210 227 224 232 218 228 233 231 235 238 241
22 356 342 330 319 313 317 334 318 314 295 291 278 264 257 245 235 229 231 233 233 230 224 222 222 221 224 223 215 208 207 214 225 222 219 223 228 226 221 233 243 247 247
351 346 333 325 315 321 297 300 321 306 287 284 295 284 250 238 232 231 233 231 229 227 225 222 221 222 223 219 209 209 219 224 220 219 223 227 218 213 224 232 243 248 250
329 323 321 320 311 307 306 294 304 300 294 294 297 304 250 232 228 227 228 226 224 221 222 223 221 220 221 215 212 219 217 212 216 218 220 224 223 224 235 238 241 246 252
318 314 311 301 294 292 288 289 287 292 291 291 296 305 249 239 233 234 231 233 231 228 224 221 221 223 218 210 217 210 208 208 207 215 215 225 232 243 253 252 250 250 256
298 298 305 301 290 299 298 262 262 280 294 297 293 288 269 246 241 232 231 227 224 221 214 212 212 212 212 204 201 203 205 209 211 211 213 226 237 236 251 263 262 264 267
296 295 293 293 305 297 267 252 271 283 298 301 289 274 266 255 243 235 228 215 212 205 201 202 197 200 200 199 201 202 205 206 208 203 202 214 220 237 256 273 284 282 279
283 286 284 290 285 292 288 291 279 290 304 291 279 281 264 249 239 227 207 197 194 193 191 192 189 186 189 192 195 198 201 205 204 208 222 232 238 251 263 283 295 287 291
273 275 290 294 276 285 267 280 287 302 303 288 279 273 249 233 214 203 197 194 191 192 188 188 185 183 184 188 189 198 199 202 195 204 218 230 243 252 269 288 285 289 293
289 282 269 263 262 254 281 301 308 304 281 260 234 214 205 200 184 185 188 191 194 204 197 193 192 189 190 196 200 204 206 210 208 214 219 226 236 254 259 253 270 276 277
284 296 282 241 248 275 293 299 303 277 248 209 191 181 179 177 175 173 170 183 194 194 201 201 200 197 202 197 201 210 214 215 218 224 230 234 235 233 236 249 261 265 275
Wind_Speed_850mb
57 57 75 93 88 87 77 73 74 76 85 104 102 95 92 89 83 82 75 77 80 77 72 70 63 58 55 52 49 49 47 46 42 41 35 27 19 21 17 14 12 7 4
56 57 56 88 94 95 87 78 83 81 88 99 105 101 93 84 84 83 78 76 79 79 77 75 66 63 60 58 57 56 56 52 52 49 36 29 28 30 23 22 17 15 13
37 50 57 81 98 104 97 86 87 91 96 99 97 95 84 75 77 81 84 83 77 80 82 79 68 66 66 63 60 58 60 62 62 57 34 19 19 37 34 32 24 17 17
28 27 12 65 99 108 103 94 90 97 98 102 97 92 89 92 91 92 87 79 74 79 85 81 72 72 71 66 61 61 62 62 64 63 55 27 23 21 28 39 31 20 17
65 58 39 6 90 102 96 93 91 95 99 100 94 89 84 89 92 93 85 78 75 74 81 82 76 76 74 68 64 65 66 63 60 64 61 48 31 28 24 38 47 34 22
72 66 59 39 47 65 75 89 91 90 94 95 90 86 82 82 84 86 84 80 76 74 76 80 75 73 73 72 68 68 68 64 59 53 61 59 55 51 36 30 38 30 28
66 70 77 63 41 18 61 77 83 85 88 85 82 77 77 76 81 82 84 83 80 76 75 79 77 76 73 72 68 69 69 66 57 53 55 52 52 45 42 33 44 42 35
88 75 63 65 49 50 13 57 70 60 68 75 76 74 71 74 74 78 79 78 76 74 75 81 78 72 69 67 61 60 60 64 62 57 54 50 45 41 37 38 44 35 42
79 78 76 59 59 57 37 9 41 52 48 59 65 75 76 70 74 76 76 72 71 73 72 77 75 70 66 62 53 53 54 55 56 57 53 48 43 41 38 34 36 38 33
63 70 73 64 60 46 44 32 12 24 37 48 48 42 57 73 69 71 71 69 72 70 68 72 75 74 72 68 57 48 48 51 51 48 42 44 41 34 29 28 28 29 33
37 34 38 29 40 47 38 45 35 16 10 12 27 42 46 55 66 74 75 76 76 78 75 73 75 77 76 71 66 72 66 61 50 46 50 47 37 30 27 24 30 29 31
26 32 31 33 14 23 27 46 44 35 18 24 18 27 35 41 56 66 69 76 75 79 75 70 69 72 77 76 73 67 68 58 58 56 58 48 40 26 30 31 32 34 32
31 30 30 29 35 39 37 43 58 39 25 28 32 35 39 44 52 54 65 77 76 83 79 75 72 69 71 72 69 72 71 62 59 58 56 47 32 34 40 40 33 33 40
30 27 32 30 38 43 32 37 44 48 32 20 20 33 56 48 54 63 67 74 76 83 86 79 73 72 70 73 72 69 67 64 65 59 50 43 43 44 45 40 34 43 41
32 31 31 35 40 48 35 31 51 39 33 31 29 33 39 47 54 62 66 71 72 79 85 81 78 73 71 71 69 64 63 69 65 54 50 54 52 51 45 41 44 39 38
28 31 33 35 33 41 33 32 20 16 30 37 41 44 38 44 54 64 67 68 73 80 86 84 81 78 71 68 63 66 68 64 56 55 58 52 45 39 43 40 41 39 36
24 31 39 39 37 33 31 32 29 21 20 20 37 54 49 45 58 61 63 69 74 79 84 85 82 76 74 67 65 66 65 61 64 57 50 44 45 40 34 38 33 36 39
36 38 41 44 46 47 49 49 41 33 29 34 34 40 59 55 63 64 65 69 76 80 83 85 81 80 74 66 65 68 68 67 52 44 45 45 35 34 37 33 34 36 33
34 40 46 53 50 58 44 37 45 44 40 45 51 45 59 65 65 68 69 73 79 82 83 86 86 79 68 62 62 67 67 47 46 47 41 36 33 31 33 29 32 31 28
37 46 50 48 53 50 51 42 47 45 42 47 46 41 51 62 67 66 65 62 72 78 86 86 78 69 59 60 64 58 48 51 46 39 33 32 28 23 25 24 24 28 29
58 52 57 62 50 49 44 40 37 43 46 48 42 39 33 56 62 63 68 67 73 82 83 77 70 58 58 63 51 50 50 45 41 38 33 29 24 21 21 22 23 24 27
50 49 57 53 47 35 31 32 35 45 51 54 43 34 36 46 58 63 73 83 83 84 76 69 63 60 55 51 53 45 39 38 38 34 27 22 21 18 17 21 22 25 27
60 56 51 44 35 36 47 30 42 41 45 44 40 36 33 44 57 71 86 81 75 74 70 67 65 58 52 51 47 44 41 37 32 25 19 19 21 19 21 21 24 19 16
53 52 50 40 44 33 25 26 31 41 46 33 22 20 24 32 46 56 60 63 63 63 67 65 59 57 55 54 53 50 41 37 35 38 37 32 27 25 24 22 14 12 13
63 48 46 29 33 35 27 31 39 41 27 16 12 15 20 28 37 40 44 51 50 44 50 55 57 61 60 59 54 47 42 36 35 35 33 32 31 30 22 17 15 15 17
36 30 42 26 23 24 34 36 35 22 15 15 18 23 28 33 36 40 42 33 34 39 37 41 45 48 42 42 41 36 34 35 38 39 38 33 24 22 20 20 21 21 23
Wind_Direction_850mb
258 269 235 214 214 219 214 221 212 218 221 217 210 208 209 214 219 224 222 218 217 213 212 211 209 211 211 208 203 196 193 186 193 188 187 186 211 233 239 241 243 252 232
242 247 249 214 211 220 211 219 214 216 217 218 216 213 212 212 220 222 224 222 221 215 214 215 211 213 211 208 207 203 196 191 196 197 190 190 204 218 219 228 238 267 266
291 264 248 220 212 210 211 215 221 215 213 212 214 213 215 213 213 222 225 222 221 217 216 217 213 215 214 214 213 205 205 198 199 205 192 178 206 193 205 221 234 237 249
28 27 23 217 210 212 215 209 215 212 209 210 211 218 222 213 216 222 225 225 221 217 217 219 215 218 217 215 216 212 210 207 207 202 207 202 193 175 178 210 235 241 247
26 20 24 340 208 209 210 206 211 212 207 210 212 213 219 222 222 223 226 226 224 220 218 221 217 216 218 218 216 214 211 208 209 209 209 210 198 191 188 194 208 217 221
26 17 21 34 207 206 209 210 206 209 208 211 213 216 218 220 218 222 223 225 225 223 218 220 220 218 219 219 217 215 215 213 211 210 216 220 214 211 202 197 201 213 211
21 26 15 16 45 207 207 200 199 205 207 210 214 218 221 220 223 227 228 228 227 225 222 222 221 221 221 222 219 215 215 214 216 213 215 216 218 220 212 198 187 194 190
9 9 17 9 7 24 214 200 202 214 211 215 218 219 220 219 223 227 229 232 233 233 228 225 222 222 220 220 220 219 215 212 213 216 219 221 219 217 214 201 182 165 184
359 354 0 359 359 3 352 250 220 215 213 220 221 221 216 218 222 223 228 237 241 240 231 227 224 221 222 223 222 220 215 211 212 217 219 220 225 224 222 215 213 211 197
353 342 342 352 348 345 3 357 7 235 226 227 229 239 241 225 223 225 227 237 243 237 233 228 226 227 225 222 217 215 223 227 218 219 225 230 222 220 219 220 223 224 208
329 310 296 291 302 342 349 356 355 319 281 266 248 248 249 244 240 239 240 241 238 238 235 233 230 227 223 224 229 236 234 220 220 229 231 221 217 219 220 244 235 227 219
299 309 273 281 281 316 360 327 337 335 328 266 278 257 260 254 245 240 241 234 238 235 235 234 232 231 227 232 227 227 216 231 225 227 218 215 213 221 235 227 239 221 236
282 296 284 283 275 304 294 269 276 287 314 320 254 253 246 247 252 245 243 236 236 234 230 231 236 234 228 222 217 222 231 221 228 218 214 213 216 234 228 229 223 243 237
270 286 275 282 278 266 270 269 268 266 274 260 281 259 250 245 248 247 240 238 236 234 229 232 232 231 229 223 219 226 225 222 212 208 209 211 229 228 223 224 233 235 234
270 282 279 295 323 295 261 309 262 262 267 285 271 278 271 247 246 241 237 235 235 232 231 225 224 227 226 225 223 225 213 204 202 205 216 221 236 225 227 246 235 235 242
5 351 347 338 335 351 337 309 275 293 259 269 279 277 264 247 240 235 233 235 233 230 226 225 228 224 223 227 225 213 204 203 210 227 224 232 218 228 233 231 235 238 241
22 356 342 330 319 313 317 334 318 314 295 291 278 264 257 245 235 229 231 233 233 230 224 222 222 221 224 223 215 208 207 214 225 222 219 223 228 226 221 233 243 247 247
351 346 333 325 315 321 297 300 321 306 287 284 295 284 250 238 232 231 233 231 229 227 225 222 221 222 223 219 209 209 219 224 220 219 223 227 218 213 224 232 243 248 250
329 323 321 320 311 307 306 294 304 300 294 294 297 304 250 232 228 227 228 226 224 221 222 223 221 220 221 215 212 219 217 212 216 218 220 224 223 224 235 238 241 246 252
318 314 311 301 294 292 288 289 287 292 291 291 296 305 249 239 233 234 231 233 231 228 224 221 221 223 218 210 217 210 208 208 207 215 215 225 232 243 253 252 250 250 256
298 298 305 301 290 299 298 262 262 280 294 297 293 288 269 246 241 232 231 227 224 221 214 212 212 212 212 204 201 203 205 209 211 211 213 226 237 236 251 263 262 264 267
296 295 293 293 305 297 267 252 271 283 298 301 289 274 266 255 243 235 228 215 212 205 201 202 197 200 200 199 201 202 205 206 208 203 202 214 220 237 256 273 284 282 279
283 286 284 290 285 292 288 291 279 290 304 291 279 281 264 249 239 227 207 197 194 193 191 192 189 186 189 192 195 198 201 205 204 208 222 232 238 251 263 283 295 287 291
273 275 290 294 276 285 267 280 287 302 303 288 279 273 249 233 214 203 197 194 191 192 188 188 185 183 184 188 189 198 199 202 195 204 218 230 243 252 269 288 285 289 293
289 282 269 263 262 254 281 301 308 304 281 260 234 214 205 200 184 185 188 191 194 204 197 193 192 189 190 196 200 204 206 210 208 214 219 226 236 254 259 253 270 276 277
284 296 282 241 248 275 293 299 303 277 248 209 191 181 179 177 175 173 170 183 194 194 201 201 200 197 202 197 201 210 214 215 218 224 230 234 235 233 236 249 261 265 275